China Lake, CA

12:27 PM PDT on May 28, 2017 (GMT -0700)
China Lake NAWS

Weather History for KNID - November, 2013

Change the Weather History Date:

Thursday, November 14, 2013

  Actual Average Record
Temperature  
Mean Temperature 62 °F -  
Max Temperature 79 °F 65 °F 81 °F (1999)
Min Temperature 44 °F 39 °F 28 °F (2012)
Degree Days  
Heating Degree Days 4    
Growing Degree Days 12 (Base 50)    
Moisture  
Dew Point 24 °F    
Average Humidity 24    
Maximum Humidity 43    
Minimum Humidity 13    
Precipitation  
Precipitation 0.00 in - - ()
Sea Level Pressure  
Sea Level Pressure 29.90 in    
Wind  
Wind Speed 7 mph (SSW)    
Max Wind Speed 18 mph    
Max Gust Speed 26 mph    
Visibility 10 miles    
Events      
Averages and records for this station are not official NWS values.
T = Trace of Precipitation, MM = Missing Value Source: NWS Daily Summary

Daily Weather History Graph

Daily Weather History Graph

Search for Another Location

Airport or City:

Trip Planner

Search our weather history database for the weather conditions in past years. The results will help you decide how hot, cold, wet, or windy it might be!

Date:

Astronomy

Nov. 14, 2013 Rise Set
Actual Time 6:25 AM PST 4:44 PM PST
Civil Twilight 5:58 AM PST 5:11 PM PST
Nautical Twilight 5:27 AM PST 5:42 PM PST
Astronomical Twilight 4:57 AM PST 6:12 PM PST
Moon 3:03 PM PST (11/14) 3:31 AM PST (11/14)
Length of Visible Light 11h 12m
Length of Day
10h 18m
Waxing Gibbous, 92% of the Moon is Illuminated
Nov 14
Waxing Gibbous
Nov 17
Full
Nov 25
Last Quarter
Dec 2
New
Dec 9
First Quarter

Hourly Weather History & Observations

Time (PST) Temp. Dew Point Humidity Pressure Visibility Wind Dir Wind Speed Gust Speed Precip Events Conditions
12:56 AM 48.9 °F 19.0 °F 31% 30.06 in 10.0 mi Variable 3.5 mph - N/A   Clear
1:56 AM 50.0 °F 21.0 °F 32% 30.06 in 10.0 mi West 3.5 mph - N/A   Clear
2:56 AM 50.0 °F 23.0 °F 35% 30.05 in 10.0 mi SW 3.5 mph - N/A   Clear
3:56 AM 51.1 °F 25.0 °F 36% 30.04 in 10.0 mi SSW 10.4 mph - N/A   Clear
4:56 AM 48.9 °F 25.0 °F 39% 30.05 in 10.0 mi Calm Calm - N/A   Clear
5:56 AM 46.9 °F 24.1 °F 41% 30.05 in 10.0 mi SSW 8.1 mph - N/A   Clear
6:56 AM 44.1 °F 23.0 °F 43% 30.07 in 10.0 mi Calm Calm - N/A   Partly Cloudy
7:56 AM 52.0 °F 23.0 °F 32% 30.07 in 10.0 mi Calm Calm - N/A   Mostly Cloudy
8:56 AM 60.1 °F 25.0 °F 26% 30.07 in 10.0 mi South 3.5 mph - N/A   Partly Cloudy
9:56 AM 68.0 °F 26.1 °F 21% 30.05 in 10.0 mi Calm Calm - N/A   Scattered Clouds
10:56 AM 73.0 °F 26.1 °F 17% 30.01 in 10.0 mi Variable 3.5 mph - N/A   Partly Cloudy
11:56 AM 73.9 °F 26.1 °F 17% 29.98 in 10.0 mi Variable 3.5 mph - N/A   Mostly Cloudy
12:56 PM 77.0 °F 25.0 °F 15% 29.92 in 10.0 mi ESE 4.6 mph - N/A   Mostly Cloudy
1:56 PM 79.0 °F 25.0 °F 14% 29.86 in 10.0 mi ENE 6.9 mph - N/A   Scattered Clouds
2:56 PM 79.0 °F 23.0 °F 13% 29.83 in 10.0 mi SSE 13.8 mph - N/A   Scattered Clouds
3:56 PM 77.0 °F 24.1 °F 14% 29.81 in 10.0 mi South 13.8 mph 20.7 mph N/A   Scattered Clouds
4:56 PM 73.9 °F 23.0 °F 15% 29.78 in 10.0 mi South 12.7 mph - N/A   Mostly Cloudy
5:56 PM 73.0 °F 24.1 °F 16% 29.77 in 10.0 mi SSW 15.0 mph - N/A   Mostly Cloudy
6:56 PM 72.0 °F 24.1 °F 17% 29.75 in 10.0 mi SW 16.1 mph - N/A   Mostly Cloudy
7:56 PM 71.1 °F 25.0 °F 18% 29.73 in 10.0 mi WSW 17.3 mph - N/A   Mostly Cloudy
8:56 PM 70.0 °F 26.1 °F 19% 29.71 in 10.0 mi SW 17.3 mph - N/A   Mostly Cloudy
9:56 PM 70.0 °F 25.0 °F 18% 29.68 in 10.0 mi SW 18.4 mph 23.0 mph N/A   Mostly Cloudy
10:56 PM 69.1 °F 25.0 °F 19% 29.65 in 10.0 mi SW 16.1 mph 26.5 mph N/A   Clear
11:56 PM 69.1 °F 25.0 °F 19% 29.62 in 10.0 mi SSW 18.4 mph 26.5 mph N/A   Clear